Regional Weather Roundup
Issued by NWS

Home | Current Version | Previous Version | Text Only | Print | Product List | Glossary Off
Versions: 1 2 3 4 5 6 7 8 9 10 11 12 13 14 15 16 17 18 19 20 21 22 23 24 25 26 27 28 29 30 31 32 33 34 35 36 37 38 39 40 41 42 43 44 45 46 47 48 49 50

000
ASUS44 KMEG 182110
RWRTN
TENNESSEE HOURLY STATE WEATHER ROUNDUP
NATIONAL WEATHER SERVICE MEMPHIS TN
400 PM CDT WED OCT 18 2017

TNZ002-004-019-021-049-052-054-088>092-182200-
WEST TENNESSEE

CITY           SKY/WX    TMP DP  RH WIND       PRES   REMARKS
MEMPHIS INTL   SUNNY     73  46  38 S8        30.18F
NWS MEMPHIS      N/A     74 N/A N/A MISG        N/A
JACKSON        SUNNY     72  47  40 S8        30.20F
SOMERVILLE     SUNNY     73  46  38 VRB6G13   30.18F
COVINGTON      SUNNY     73  48  40 SE8G15    30.18F
UNION CITY     SUNNY     73  46  38 S12       30.18F
BOLIVAR        SUNNY     72  45  37 SE8       30.19S
PARIS          SUNNY     72  46  40 S9        30.19F
HUNTINGDON     SUNNY     72  46  40 S6        30.19F
LEXINGTON      SUNNY     72  45  37 S6G12     30.21S
SELMER         SUNNY     72  46  40 S5        30.20F
SAVANNAH       SUNNY     73  45  35 S9        30.20F
$$

TNZ008-025-027-028-033-062-065-066-182200-
NORTH MIDDLE TENNESSEE

CITY           SKY/WX    TMP DP  RH WIND       PRES   REMARKS
NASHVILLE      MOSUNNY   73  40  30 S8        30.24F
PORTLAND       SUNNY     70  45  40 S9        30.23S HAZE
CLARKSVILLE    SUNNY     71  43  36 VRB5      30.22S
SMYRNA         SUNNY     73  42  32 VRB5      30.24F
COOKEVILLE     SUNNY     72  41  33 CALM      30.24F
GALLATIN       SUNNY     73  43  33 SE6       30.25F
CROSSVILLE     SUNNY     68  41  37 VRB3      30.27F
$$

TNZ061-075-076-078-094-096-097-182200-
SOUTH MIDDLE TENNESSEE

CITY           SKY/WX    TMP DP  RH WIND       PRES   REMARKS
FAYETTEVILLE   SUNNY     70  43  37 S7        30.23F
TULLAHOMA      SUNNY     70  37  30 SW5       30.26S
WINCHESTER     SUNNY     70  41  35 SE6         N/A
COLUMBIA       SUNNY     72  43  35 CALM      30.21S
SHELBYVILLE    SUNNY     70  43  37 S6        30.24S
$$

TNZ017-018-042-046-047-182200-
NORTHEAST TENNESSEE

CITY           SKY/WX    TMP DP  RH WIND       PRES   REMARKS
TRI CITIES     PTSUNNY   70  43  37 CALM      30.27F
ELIZABETHTON   SUNNY     72  43  35 NW3       30.26F
$$

TNZ012-013-036-069-073-074-182200-
CENTRAL EAST TENNESSEE

CITY           SKY/WX    TMP DP  RH WIND       PRES   REMARKS
KNOXVILLE      MOSUNNY   69  45  41 NW3       30.26S
OAK RIDGE      SUNNY     70  46  42 VRB3      30.28
DOWNTOWN KNOXV SUNNY     70  43  37 CALM      30.27S
GATLINBURG     SUNNY     70  43  37 NW5       30.25F
MORRISTOWN     SUNNY     68  45  42 VRB3      30.26F
JACKSBORO      SUNNY     68  48  49 VRB3      30.30S
$$

TNZ083-085-099-182200-
SOUTHEAST TENNESSEE

CITY           SKY/WX    TMP DP  RH WIND       PRES   REMARKS
CHATTANOOGA    MOSUNNY   70  43  37 S6        30.26F
DAYTON         CLEAR     70  52  52 CALM      30.26S
$$

SKY/WX REPORTED AS FAIR MEANS FEW OR NO CLOUDS BELOW
12 THOUSAND FEET.




USA.gov is the U.S. government's official web portal to all federal, state and local government web resources and services.